Tracking 18840 objects as of 17-November-2017
HD Live streaming from Space Station
objects crossing your sky now

FENGYUN 1C DEB

Track FENGYUN 1C DEB now!
10-day predictions


NORAD ID: 41009
Int'l Code: 1999-025EXP
Perigee: 821.6 km
Apogee: 852.4 km
Inclination: 99.2 °
Period: 101.5 minutes
Semi major axis: 7208 km
RCS: Unknown
Launch date: May 10, 1999
Source: People's Republic of China (PRC)
Launch site: Taiyaun Space Center, China (TSC)

Note: This is SATELLITE DEBRIS
aabbcc
Your satellite tracking list
Your tracking list is empty




NASA's NSSDC Master Catalog

Two Line Element Set (TLE):
1 41009U 99025EXP 17319.21613785  .00001176  00000-0  58889-3 0  9999
2 41009  99.2105 106.3736 0021386 256.6647 103.2143 14.18661739169662
Source of the keplerian elements: AFSPC